This is the latest recevied weather packets stored in our database for station/object IR3AS. If no packets are shown the sender has not sent any weather packets the latest 10 day(s).
| Time | Temp. | Humidity | Pressure | Rain* | Wind** | Luminosity | Snow |
|---|---|---|---|---|---|---|---|
| 1787484310 | 16.67° C | 68% | 867.2 hPa | 0 mm | - | - | - |
| 1787484010 | 17.22° C | 67% | 866.9 hPa | 0 mm | - | - | - |
| 1787483710 | 17.78° C | 67% | 867.9 hPa | 0 mm | - | - | - |
| 1787483410 | 17.78° C | 66% | 868.6 hPa | 0 mm | - | - | - |
| 1787483110 | 17.22° C | 69% | 868.5 hPa | 0 mm | - | - | - |
| 1787482810 | 17.22° C | 69% | 867.6 hPa | 0 mm | - | - | - |
| 1787482547 | 16.67° C | 72% | 867.8 hPa | 0 mm | - | - | - |
| 1787482510 | 16.67° C | 72% | 867.8 hPa | 0 mm | - | - | - |
| 1787482210 | 15.56° C | 73% | 868.3 hPa | 0 mm | - | - | - |
| 1787481910 | 15° C | 73% | 868.2 hPa | 0 mm | - | - | - |
| 1787481610 | 15° C | 74% | 868.4 hPa | 0 mm | - | - | - |
| 1787481310 | 14.44° C | 75% | 868.1 hPa | 0 mm | - | - | - |
| 1787481010 | 14.44° C | 75% | 868.8 hPa | 0 mm | - | - | - |
| 1787480710 | 14.44° C | 75% | 868.1 hPa | 0 mm | - | - | - |
| 1787480410 | 14.44° C | 74% | 868.7 hPa | 0 mm | - | - | - |
| 1787480110 | 14.44° C | 75% | 868.1 hPa | 0 mm | - | - | - |
| 1787479810 | 14.44° C | 76% | 865.5 hPa | 0 mm | - | - | - |
| 1787479510 | 14.44° C | 77% | 868 hPa | 0 mm | - | - | - |
| 1787479210 | 13.89° C | 77% | 868.5 hPa | 0 mm | - | - | - |
| 1787478910 | 13.89° C | 78% | 866.8 hPa | 0 mm | - | - | - |
| 1787478610 | 13.33° C | 78% | 867.5 hPa | 0 mm | - | - | - |
| 1787478310 | 13.33° C | 80% | 867.5 hPa | 0 mm | - | - | - |
| 1787478010 | 13.33° C | 80% | 866.3 hPa | 0 mm | - | - | - |
| 1787477710 | 13.33° C | 82% | 866.6 hPa | 0 mm | - | - | - |
| 1787477495 | 12.78° C | 84% | 867 hPa | 0 mm | - | - | - |
* Rain latest hour (hover to see other rain measurements)
** Current wind speed in m/s (hover to see current wind gust speed)